Weather in Kabwe

Zambia     14°26′21″S   28°25′35″E
temp.,
°C
wind,
m/s
gust,
m/s
humid.,
%
clouds,
%
prec.,
mm/h
press.,
hPa
HPBL,
m
21 october, thu
thu2123:00+18ese5117116 0.0 1018614
02:00+16ese310806 0.0 1017443
05:00+15ese4118812 0.0 1017422
08:00+20e596124 0.0 1018761
11:00+28e553423 0.0 10151998
14:00+32ese542359 0.0 10093282
17:00+27se67379 0.0 10111444
20:00+22ese4114870 0.0 1014672
22 october, fri
fri2223:00+20e412635 0.0 1015511
02:00+19e4126299 0.0 1012462
05:00+19e313645 0.0 1013502
08:00+24ene474713 0.0 1015841
11:00+32ene322544 0.0 10112136
14:00+37ese121798 0.0 10063935
17:00+33sse432399 0.0 10061858
20:00+26ese28345 0.0 1009177
23 october, sat
sat2323:00+24e28395 0.0 1011173
02:00+22e274531 0.0 1010139
05:00+22ene384512 0.0 1011193
08:00+26ne473165 0.0 1013560
11:00+35nne331957 0.0 10103027
14:00+36sw1317100 0.0 10063836
17:00+31n232157 0.0 100690
20:00+27wsw112744 0.0 100811
24 october, sun
sun2423:00+26nne1130100 0.0 101114
02:00+24wnw113443 0.0 100911
05:00+22w363920 0.0 1012104
08:00+31e1226100 0.0 1012686
11:00+37ene251694 0.0 10103565
14:00+38ese5513100 0.0 10054314
17:00+36ese551541 0.0 10042981
20:00+30e4132296 0.0 1008529
25 october, mon
mon2523:00+27ene2830100 0.0 1009221
02:00+27ese3103071 0.3 1009700
05:00+24ese5124583 0.0 1013755
08:00+24ese595097 0.0 1015745
11:00+33ese572498 0.0 10122586
14:00+34ese562076 0.0 10073538
17:00+34ese67205 0.0 10063108
20:00+27se611424 0.0 1010731